This is the latest recevied weather packets stored in our database for station/object K9APR. If no packets are shown the sender has not sent any weather packets the latest 10 day(s).
| Time | Temp. | Humidity | Pressure | Rain* | Wind** | Luminosity | Snow |
|---|---|---|---|---|---|---|---|
| 1778178744 | 13.89° C | 50% | 1015.5 hPa | 0 mm | - | - | - |
| 1778178204 | 13.33° C | 51% | 1015.7 hPa | 0 mm | - | - | - |
| 1778177663 | 13.33° C | 45% | 1015.8 hPa | 0 mm | - | - | - |
| 1778177124 | 13.33° C | 47% | 1015.8 hPa | 0 mm | - | - | - |
| 1778176584 | 13.89° C | 51% | 1015.8 hPa | 0 mm | - | - | - |
| 1778176042 | 13.33° C | 52% | 1015.9 hPa | 0 mm | - | - | - |
| 1778175504 | 13.33° C | 52% | 1016 hPa | 0 mm | - | - | - |
| 1778174965 | 13.33° C | 50% | 1016.1 hPa | 0 mm | - | - | - |
| 1778174423 | 12.78° C | 47% | 1016.2 hPa | 0 mm | - | - | - |
| 1778173885 | 12.78° C | 50% | 1016.4 hPa | 0 mm | - | - | - |
| 1778173343 | 12.78° C | 49% | 1016.3 hPa | 0 mm | - | - | - |
| 1778172802 | 12.78° C | 54% | 1016.4 hPa | 0 mm | - | - | - |
| 1778172263 | 12.22° C | 48% | 1016.6 hPa | 0 mm | - | - | - |
| 1778171722 | 12.22° C | 49% | 1016.7 hPa | 0 mm | - | - | - |
| 1778171183 | 11.67° C | 50% | 1016.6 hPa | 0 mm | - | - | - |
| 1778170643 | 11.67° C | 56% | 1016.7 hPa | 0 mm | - | - | - |
| 1778170102 | 11.67° C | 51% | 1016.6 hPa | 0 mm | - | - | - |
| 1778169564 | 11.67° C | 54% | 1016.7 hPa | 0 mm | - | - | - |
| 1778169024 | 11.67° C | 49% | 1016.7 hPa | 0 mm | - | - | - |
| 1778168484 | 11.11° C | 51% | 1016.6 hPa | 0 mm | - | - | - |
| 1778167943 | 11.11° C | 56% | 1016.6 hPa | 0 mm | - | - | - |
| 1778167403 | 11.11° C | 56% | 1016.5 hPa | 0 mm | - | - | - |
| 1778166863 | 10.56° C | 52% | 1016.6 hPa | 0 mm | - | - | - |
| 1778166324 | 10° C | 57% | 1016.4 hPa | 0 mm | - | - | - |
| 1778165785 | 10° C | 54% | 1016.5 hPa | 0 mm | - | - | - |
* Rain latest hour (hover to see other rain measurements)
** Current wind speed in m/s (hover to see current wind gust speed)